ミュラー第1彗星

120P/Mueller 1 (2021)

English version
Home page
Updated on December 28, 2022

---------------------------------------------------------------------

・ プロフィール

・ 軌道要素

Epoch 2021 July 5.0 TT = JDT 2459400.5
T 2021 May 7.16156 TT                                   Rudenko
q   2.4778759            (2000.0)            P               Q
n   0.12500173     Peri.   36.56387     +0.81661307     -0.57717538
a   3.9614912      Node   358.67395     +0.48838893     +0.69412454
e   0.3745093      Incl.    8.48999     +0.30760257     +0.43018566
P   7.88
From 149 observations 1987 Oct. 19-2021 Oct. 4, mean residual 0".9.
     Nongravitational parameters A1 = -3.15, A2 = -0.1567.

・ 光度変化

        m1 = 3.0 + 5 logΔ + 33 log r(t - 45)

---------------------------------------------------------------------

軌道要素はM.P.E.C. 2021-T130に掲載されたものです。
光度グラフはComet for Windowsで作成したものです。

---------------------------------------------------------------------

Copyright(C) Seiichi Yoshida (comet@aerith.net). All rights reserved.